Time,TemperatureF,DewpointF,PressureIn,WindDirection,WindDirectionDegrees,WindSpeedMPH,WindSpeedGustMPH,Humidity,HourlyPrecipIn,Conditions,Clouds,dailyrainin,SoftwareType,DateUTC
2013-05-28 00:04:00,65.1,44.4,29.55,SW,225,2.2,-999.0,47,-99.99,,,0.00,Acu-Link.com,2013-05-28 08:04:00,
2013-05-28 00:20:00,64.6,43.9,29.55,SW,225,2.7,-999.0,47,-99.99,,,0.00,Acu-Link.com,2013-05-28 08:20:00,
2013-05-28 00:35:00,63.7,44.2,29.55,WNW,292,1.7,-999.0,49,-99.99,,,0.00,Acu-Link.com,2013-05-28 08:35:00,
2013-05-28 00:50:00,61.0,44.7,29.55,SE,135,3.7,-999.0,55,-99.99,,,0.00,Acu-Link.com,2013-05-28 08:50:00,
2013-05-28 01:05:00,58.6,43.0,29.56,SSE,157,5.3,-999.0,56,-99.99,,,0.00,Acu-Link.com,2013-05-28 09:05:00,
2013-05-28 01:20:00,58.6,44.3,29.57,SE,135,4.2,-999.0,59,-99.99,,,0.00,Acu-Link.com,2013-05-28 09:20:00,
2013-05-28 01:35:00,57.0,43.7,29.57,SSE,157,2.7,-999.0,61,-99.99,,,0.00,Acu-Link.com,2013-05-28 09:35:00,
2013-05-28 01:50:00,55.0,43.5,29.57,South,180,2.2,-999.0,65,-99.99,,,0.00,Acu-Link.com,2013-05-28 09:50:00,
2013-05-28 02:06:00,55.8,43.0,29.57,SSE,157,4.7,-999.0,62,-99.99,,,0.00,Acu-Link.com,2013-05-28 10:06:00,
2013-05-28 02:21:00,54.7,42.8,29.58,ESE,112,5.3,-999.0,64,-99.99,,,0.00,Acu-Link.com,2013-05-28 10:21:00,
2013-05-28 02:36:00,53.6,42.1,29.58,ESE,112,4.2,-999.0,65,-99.99,,,0.00,Acu-Link.com,2013-05-28 10:36:00,
2013-05-28 02:51:00,52.3,41.7,29.58,SE,135,5.3,-999.0,67,-99.99,,,0.00,Acu-Link.com,2013-05-28 10:51:00,
2013-05-28 03:06:00,51.8,42.0,29.58,ESE,112,2.7,-999.0,69,-99.99,,,0.00,Acu-Link.com,2013-05-28 11:06:00,
2013-05-28 03:22:00,50.4,41.4,29.58,East,90,2.2,-999.0,71,-99.99,,,0.00,Acu-Link.com,2013-05-28 11:22:00,
2013-05-28 03:37:00,48.6,41.4,29.58,SSE,157,2.7,-999.0,76,-99.99,,,0.00,Acu-Link.com,2013-05-28 11:37:00,
2013-05-28 03:52:00,47.7,41.2,29.58,South,180,2.7,-999.0,78,-99.99,,,0.00,Acu-Link.com,2013-05-28 11:52:00,
2013-05-28 04:08:00,48.0,41.1,29.59,ESE,112,3.2,-999.0,77,-99.99,,,0.00,Acu-Link.com,2013-05-28 12:08:00,
2013-05-28 04:23:00,48.0,41.5,29.59,East,90,0.0,-999.0,78,-99.99,,,0.00,Acu-Link.com,2013-05-28 12:23:00,
2013-05-28 04:38:00,47.5,41.3,29.59,ESE,112,3.7,-999.0,79,-99.99,,,0.00,Acu-Link.com,2013-05-28 12:38:00,
2013-05-28 04:53:00,47.3,41.1,29.59,SE,135,2.2,-999.0,79,-99.99,,,0.00,Acu-Link.com,2013-05-28 12:53:00,
2013-05-28 05:08:00,47.8,40.9,29.60,SSE,157,2.2,-999.0,77,-99.99,,,0.00,Acu-Link.com,2013-05-28 13:08:00,
2013-05-28 05:24:00,46.9,40.7,29.60,ENE,67,3.2,-999.0,79,-99.99,,,0.00,Acu-Link.com,2013-05-28 13:24:00,
2013-05-28 05:39:00,46.8,41.0,29.60,NE,45,1.7,-999.0,80,-99.99,,,0.00,Acu-Link.com,2013-05-28 13:39:00,
2013-05-28 05:54:00,48.0,41.5,29.60,NNE,22,0.0,-999.0,78,-99.99,,,0.00,Acu-Link.com,2013-05-28 13:54:00,
2013-05-28 06:10:00,47.1,42.2,29.60,NE,45,0.0,-999.0,83,-99.99,,,0.00,Acu-Link.com,2013-05-28 14:10:00,
2013-05-28 06:25:00,46.8,41.9,29.61,ENE,67,2.7,-999.0,83,-99.99,,,0.00,Acu-Link.com,2013-05-28 14:25:00,
2013-05-28 06:40:00,48.4,42.5,29.61,SW,225,0.0,-999.0,80,-99.99,,,0.00,Acu-Link.com,2013-05-28 14:40:00,
2013-05-28 06:56:00,50.5,43.2,29.61,SW,225,0.0,-999.0,76,-99.99,,,0.00,Acu-Link.com,2013-05-28 14:56:00,
2013-05-28 07:11:00,57.0,46.5,29.61,SSW,202,0.0,-999.0,68,-99.99,,,0.00,Acu-Link.com,2013-05-28 15:11:00,
2013-05-28 07:26:00,60.4,45.1,29.61,SW,225,0.0,-999.0,57,-99.99,,,0.00,Acu-Link.com,2013-05-28 15:26:00,
2013-05-28 07:41:00,61.3,46.4,29.60,SSW,202,0.0,-999.0,58,-99.99,,,0.00,Acu-Link.com,2013-05-28 15:41:00,
2013-05-28 07:57:00,64.4,45.4,29.60,SSE,157,0.0,-999.0,50,-99.99,,,0.00,Acu-Link.com,2013-05-28 15:57:00,
2013-05-28 08:12:00,66.4,47.2,29.60,South,180,0.0,-999.0,50,-99.99,,,0.00,Acu-Link.com,2013-05-28 16:12:00,
2013-05-28 08:28:00,74.3,48.4,29.60,SE,135,0.0,-999.0,40,-99.99,,,0.00,Acu-Link.com,2013-05-28 16:28:00,
2013-05-28 08:44:00,69.4,45.9,29.59,NE,45,1.7,-999.0,43,-99.99,,,0.00,Acu-Link.com,2013-05-28 16:44:00,
2013-05-28 08:59:00,64.8,43.0,29.59,SW,225,4.7,-999.0,45,-99.99,,,0.00,Acu-Link.com,2013-05-28 16:59:00,
2013-05-28 09:14:00,67.5,44.2,29.58,SSW,202,1.7,-999.0,43,-99.99,,,0.00,Acu-Link.com,2013-05-28 17:14:00,
2013-05-28 09:29:00,69.1,43.1,29.56,SSW,202,4.2,-999.0,39,-99.99,,,0.00,Acu-Link.com,2013-05-28 17:29:00,
2013-05-28 09:45:00,70.2,42.7,29.54,SSW,202,3.2,-999.0,37,-99.99,,,0.00,Acu-Link.com,2013-05-28 17:45:00,
2013-05-28 10:00:00,72.5,41.0,29.53,SSE,157,2.7,-999.0,32,-99.99,,,0.00,Acu-Link.com,2013-05-28 18:00:00,
2013-05-28 10:16:00,73.0,41.4,29.52,NE,45,1.1,-999.0,32,-99.99,,,0.00,Acu-Link.com,2013-05-28 18:16:00,
2013-05-28 10:31:00,71.2,39.8,29.51,SSE,157,2.2,-999.0,32,-99.99,,,0.00,Acu-Link.com,2013-05-28 18:31:00,
2013-05-28 10:46:00,72.1,38.9,29.52,West,270,3.7,-999.0,30,-99.99,,,0.00,Acu-Link.com,2013-05-28 18:46:00,
2013-05-28 11:02:00,73.8,39.5,29.50,WNW,292,2.7,-999.0,29,-99.99,,,0.00,Acu-Link.com,2013-05-28 19:02:00,
2013-05-28 11:17:00,75.0,41.5,29.51,North,0,2.2,-999.0,30,-99.99,,,0.00,Acu-Link.com,2013-05-28 19:17:00,
2013-05-28 11:33:00,75.6,39.3,29.51,ESE,112,1.1,-999.0,27,-99.99,,,0.00,Acu-Link.com,2013-05-28 19:33:00,
2013-05-28 11:48:00,78.3,39.6,29.51,ESE,112,0.0,-999.0,25,-99.99,,,0.00,Acu-Link.com,2013-05-28 19:48:00,
2013-05-28 12:03:00,77.7,39.1,29.51,NE,45,2.2,-999.0,25,-99.99,,,0.00,Acu-Link.com,2013-05-28 20:03:00,
2013-05-28 12:19:00,77.0,39.5,29.51,SSW,202,4.2,-999.0,26,-99.99,,,0.00,Acu-Link.com,2013-05-28 20:19:00,
2013-05-28 12:34:00,76.1,37.7,29.51,West,270,4.2,-999.0,25,-99.99,,,0.00,Acu-Link.com,2013-05-28 20:34:00,
2013-05-28 12:49:00,75.9,37.5,29.53,ESE,112,2.7,-999.0,25,-99.99,,,0.00,Acu-Link.com,2013-05-28 20:49:00,
2013-05-28 13:05:00,78.3,38.5,29.53,NNW,337,6.3,-999.0,24,-99.99,,,0.00,Acu-Link.com,2013-05-28 21:05:00,
2013-05-28 13:20:00,78.6,37.7,29.53,NNW,337,4.7,-999.0,23,-99.99,,,0.00,Acu-Link.com,2013-05-28 21:20:00,
2013-05-28 13:35:00,79.7,36.3,29.52,NNE,22,4.7,-999.0,21,-99.99,,,0.00,Acu-Link.com,2013-05-28 21:35:00,
2013-05-28 13:50:00,80.1,35.4,29.52,ESE,112,5.8,-999.0,20,-99.99,,,0.00,Acu-Link.com,2013-05-28 21:50:00,
2013-05-28 14:05:00,79.5,34.9,29.52,WNW,292,8.9,-999.0,20,-99.99,,,0.00,Acu-Link.com,2013-05-28 22:05:00,
2013-05-28 14:21:00,79.0,34.5,29.51,SSE,157,3.7,-999.0,20,-99.99,,,0.00,Acu-Link.com,2013-05-28 22:21:00,
2013-05-28 14:36:00,80.1,34.1,29.51,NNW,337,5.3,-999.0,19,-99.99,,,0.00,Acu-Link.com,2013-05-28 22:36:00,
2013-05-28 14:51:00,80.2,32.8,29.51,West,270,10.4,-999.0,18,-99.99,,,0.00,Acu-Link.com,2013-05-28 22:51:00,
2013-05-28 15:06:00,80.2,31.4,29.50,SW,225,9.4,-999.0,17,-99.99,,,0.00,Acu-Link.com,2013-05-28 23:06:00,
2013-05-28 15:21:00,80.8,31.9,29.50,NNW,337,6.3,-999.0,17,-99.99,,,0.00,Acu-Link.com,2013-05-28 23:21:00,
2013-05-28 15:37:00,81.3,33.7,29.49,WSW,247,11.9,-999.0,18,-99.99,,,0.00,Acu-Link.com,2013-05-28 23:37:00,
2013-05-28 15:52:00,81.0,34.8,29.49,SW,225,8.3,-999.0,19,-99.99,,,0.00,Acu-Link.com,2013-05-28 23:52:00,
2013-05-28 16:07:00,80.4,34.4,29.49,West,270,4.7,-999.0,19,-99.99,,,0.00,Acu-Link.com,2013-05-29 00:07:00,
2013-05-28 16:23:00,81.5,35.2,29.48,North,0,2.7,-999.0,19,-99.99,,,0.00,Acu-Link.com,2013-05-29 00:23:00,
2013-05-28 16:38:00,81.5,35.2,29.48,West,270,10.4,-999.0,19,-99.99,,,0.00,Acu-Link.com,2013-05-29 00:38:00,
2013-05-28 16:53:00,81.0,34.8,29.47,West,270,8.9,-999.0,19,-99.99,,,0.00,Acu-Link.com,2013-05-29 00:53:00,
2013-05-28 17:08:00,82.0,35.7,29.48,WSW,247,16.6,-999.0,19,-99.99,,,0.00,Acu-Link.com,2013-05-29 01:08:00,
2013-05-28 17:23:00,78.8,38.9,29.47,ENE,67,9.9,-999.0,24,-99.99,,,0.00,Acu-Link.com,2013-05-29 01:23:00,
2013-05-28 17:39:00,79.7,38.6,29.47,ENE,67,11.4,-999.0,23,-99.99,,,0.00,Acu-Link.com,2013-05-29 01:39:00,
2013-05-28 17:54:00,77.5,36.8,29.47,ENE,67,10.9,-999.0,23,-99.99,,,0.00,Acu-Link.com,2013-05-29 01:54:00,
2013-05-28 18:09:00,77.4,39.8,29.47,ESE,112,6.3,-999.0,26,-99.99,,,0.00,Acu-Link.com,2013-05-29 02:09:00,
2013-05-28 18:24:00,79.7,38.6,29.46,ESE,112,9.4,-999.0,23,-99.99,,,0.00,Acu-Link.com,2013-05-29 02:24:00,
2013-05-28 18:39:00,79.7,35.1,29.46,NNW,337,5.3,-999.0,20,-99.99,,,0.00,Acu-Link.com,2013-05-29 02:39:00,
2013-05-28 18:55:00,79.5,36.1,29.46,ESE,112,6.8,-999.0,21,-99.99,,,0.00,Acu-Link.com,2013-05-29 02:55:00,
2013-05-28 19:11:00,79.5,34.9,29.45,East,90,6.8,-999.0,20,-99.99,,,0.00,Acu-Link.com,2013-05-29 03:11:00,
2013-05-28 19:26:00,79.7,35.1,29.45,NNE,22,6.3,-999.0,20,-99.99,,,0.00,Acu-Link.com,2013-05-29 03:26:00,
2013-05-28 19:41:00,79.5,34.9,29.45,North,0,7.8,-999.0,20,-99.99,,,0.00,Acu-Link.com,2013-05-29 03:41:00,
2013-05-28 19:56:00,79.3,34.7,29.45,NNE,22,5.8,-999.0,20,-99.99,,,0.00,Acu-Link.com,2013-05-29 03:56:00,
2013-05-28 20:12:00,80.2,32.8,29.45,NNE,22,7.8,-999.0,18,-99.99,,,0.00,Acu-Link.com,2013-05-29 04:12:00,
2013-05-28 20:27:00,77.7,33.4,29.46,NNE,22,5.3,-999.0,20,-99.99,,,0.00,Acu-Link.com,2013-05-29 04:27:00,
2013-05-28 20:43:00,76.8,35.1,29.46,NNE,22,4.2,-999.0,22,-99.99,,,0.00,Acu-Link.com,2013-05-29 04:43:00,
2013-05-28 20:58:00,76.1,36.7,29.46,NNE,22,2.2,-999.0,24,-99.99,,,0.00,Acu-Link.com,2013-05-29 04:58:00,
2013-05-28 21:13:00,75.7,36.3,29.46,NW,315,2.7,-999.0,24,-99.99,,,0.00,Acu-Link.com,2013-05-29 05:13:00,
2013-05-28 21:30:00,75.0,37.8,29.46,North,0,3.7,-999.0,26,-99.99,,,0.00,Acu-Link.com,2013-05-29 05:30:00,
2013-05-28 21:45:00,74.1,38.9,29.46,North,0,2.7,-999.0,28,-99.99,,,0.00,Acu-Link.com,2013-05-29 05:45:00,
2013-05-28 22:01:00,72.5,41.0,29.46,North,0,0.0,-999.0,32,-99.99,,,0.00,Acu-Link.com,2013-05-29 06:01:00,
2013-05-28 22:16:00,70.5,42.3,29.46,South,180,0.0,-999.0,36,-99.99,,,0.00,Acu-Link.com,2013-05-29 06:16:00,
2013-05-28 22:31:00,70.0,42.5,29.47,South,180,0.0,-999.0,37,-99.99,,,0.00,Acu-Link.com,2013-05-29 06:31:00,
2013-05-28 22:47:00,68.2,44.2,29.47,South,180,0.0,-999.0,42,-99.99,,,0.00,Acu-Link.com,2013-05-29 06:47:00,
2013-05-28 23:02:00,68.0,45.9,29.47,WNW,292,4.7,-999.0,45,-99.99,,,0.00,Acu-Link.com,2013-05-29 07:02:00,
2013-05-28 23:17:00,66.9,47.6,29.47,ESE,112,0.0,-999.0,50,-99.99,,,0.00,Acu-Link.com,2013-05-29 07:17:00,
2013-05-28 23:48:00,62.4,46.5,29.47,North,0,0.0,-999.0,56,-99.99,,,0.00,Acu-Link.com,2013-05-29 07:48:00,